Agiasma, Greece

9:09 AM EET on December 09, 2016 (GMT +0200)
Megas Alexandros

Weather History for LGKV - October, 2012

Change the Weather History Date:

Tuesday, October 2, 2012

  Actual Average Record
Temperature  
Mean Temperature 68 °F -  
Max Temperature 78 °F 72 °F 78 °F (1999)
Min Temperature 59 °F 56 °F 50 °F (2013)
Cooling Degree Days 4    
Growing Degree Days 18 (Base 50)    
Moisture  
Dew Point 64 °F    
Average Humidity 78    
Maximum Humidity 94    
Minimum Humidity 54    
Precipitation  
Precipitation 0.00 in - - ()
Sea Level Pressure  
Sea Level Pressure 30.01 in    
Wind  
Wind Speed 4 mph ()    
Max Wind Speed 13 mph    
Max Gust Speed -    
Visibility 6.2 miles    
Events      
Averages and records for this station are not official NWS values.
T = Trace of Precipitation, MM = Missing Value Source: Averaged Metar Reports

Daily Weather History Graph

Daily Weather History Graph

Search for Another Location

Airport or City:

Trip Planner

Search our weather history database for the weather conditions in past years. The results will help you decide how hot, cold, wet, or windy it might be!

Date:

Astronomy

Oct. 02, 2012 Rise Set
Actual Time 7:19 AM EEST 7:01 PM EEST
Civil Twilight 6:51 AM EEST 7:28 PM EEST
Nautical Twilight 6:20 AM EEST 8:00 PM EEST
Astronomical Twilight 5:47 AM EEST 8:32 PM EEST
Moon 8:01 PM EEST (10/2) 9:29 AM EEST (10/2)
Length of Visible Light 12h 36m
Length of Day
11h 42m
Waning Gibbous, 95% of the Moon is Illuminated
Oct 2
Waning Gibbous
Oct 8
Last Quarter
Oct 15
New
Oct 22
First Quarter
Oct 29
Full

Hourly Weather History & Observations

Time (EEST) Temp. Dew Point Humidity Pressure Visibility Wind Dir Wind Speed Gust Speed Precip Events Conditions
5:20 AM 64.4 °F 62.6 °F 94% 30.04 in - Calm Calm - N/A   Clear
5:50 AM 62.6 °F 60.8 °F 94% 30.04 in - Calm Calm - N/A   Clear
6:20 AM 62.6 °F 60.8 °F 94% 30.04 in - East 4.6 mph - N/A   Clear
6:50 AM 60.8 °F 59.0 °F 94% 30.04 in - NE 5.8 mph - N/A   Clear
7:20 AM 60.8 °F 59.0 °F 94% 30.04 in - NNE 4.6 mph - N/A   Clear
7:50 AM 59.0 °F 57.2 °F 94% 30.04 in 6.2 mi NNE 4.6 mph - N/A   Partly Cloudy
8:20 AM 60.8 °F 59.0 °F 94% 30.04 in 6.2 mi NNE 4.6 mph - N/A   Partly Cloudy
8:50 AM 64.4 °F 62.6 °F 94% 30.04 in 6.2 mi Calm Calm - N/A   Partly Cloudy
9:20 AM 66.2 °F 62.6 °F 88% 30.04 in 6.2 mi NE 4.6 mph - N/A   Partly Cloudy
9:50 AM 69.8 °F 64.4 °F 83% 30.04 in 6.2 mi East 6.9 mph - N/A   Partly Cloudy
10:20 AM 73.4 °F 66.2 °F 78% 30.06 in 6.2 mi East 8.1 mph - N/A   Partly Cloudy
10:50 AM 73.4 °F 66.2 °F 78% 30.06 in 6.2 mi ESE 12.7 mph - N/A   Partly Cloudy
11:20 AM 73.4 °F 66.2 °F 78% 30.06 in 6.2 mi ESE 12.7 mph - N/A   Scattered Clouds
11:50 AM 75.2 °F 64.4 °F 69% 30.06 in 6.2 mi ESE 11.5 mph - N/A   Scattered Clouds
12:20 PM 75.2 °F 64.4 °F 69% 30.06 in 6.2 mi ESE 6.9 mph - N/A   Scattered Clouds
12:50 PM 77.0 °F 62.6 °F 61% 30.04 in 6.2 mi SSE 6.9 mph - N/A   Partly Cloudy
1:20 PM 77.0 °F 62.6 °F 61% 30.04 in 6.2 mi South 8.1 mph - N/A   Partly Cloudy
1:50 PM 78.8 °F 60.8 °F 54% 30.01 in 6.2 mi SSE 5.8 mph - N/A   Partly Cloudy
2:20 PM 78.8 °F 60.8 °F 54% 30.01 in 6.2 mi South 6.9 mph - N/A   Partly Cloudy
2:50 PM 78.8 °F 66.2 °F 65% 30.01 in 6.2 mi SSW 8.1 mph - N/A   Partly Cloudy
3:20 PM 78.8 °F 66.2 °F 65% 29.98 in 6.2 mi SW 6.9 mph - N/A   Partly Cloudy
3:50 PM 78.8 °F 66.2 °F 65% 29.98 in - SW 5.8 mph - N/A   Clear
4:20 PM 78.8 °F 66.2 °F 65% 29.98 in - SW 6.9 mph - N/A   Clear
4:50 PM 78.8 °F 66.2 °F 65% 29.98 in - SW 5.8 mph - N/A   Clear
5:20 PM 78.8 °F 66.2 °F 65% 29.95 in - SW 5.8 mph - N/A   Clear
5:50 PM 77.0 °F 66.2 °F 69% 29.95 in - WSW 4.6 mph - N/A   Clear
6:20 PM 77.0 °F 66.2 °F 69% 29.95 in - SW 4.6 mph - N/A   Clear
6:50 PM 75.2 °F 68.0 °F 78% 29.95 in - SW 5.8 mph - N/A   Clear
7:20 PM 73.4 °F 68.0 °F 83% 29.95 in - Calm Calm - N/A   Clear
7:50 PM 73.4 °F 68.0 °F 83% 29.95 in - SW 5.8 mph - N/A   Clear
8:20 PM 71.6 °F 68.0 °F 88% 29.95 in - SW 4.6 mph - N/A   Clear
8:50 PM 69.8 °F 66.2 °F 88% 29.95 in - SW 5.8 mph - N/A   Clear
9:20 PM 68.0 °F 66.2 °F 94% 29.95 in - SW 4.6 mph - N/A   Clear
9:50 PM 69.8 °F 66.2 °F 88% 29.95 in - Calm Calm - N/A   Clear